FENGYUN 1C DEB, 30941

Orbit data source: Space-Track

FENGYUN 1C DEB, 30941 is space debris in SSO originally from a launch on Mon, 10 May 1999 UTC launched from the Taiyaun Space Center, China (TSC). Fengyun 1C debris stems from the Chinese weather satellite Fengyun-1C, which was intentionally destroyed by a Chinese anti-satellite missile in 2007. This event dramatically increased the amount of space debris, with thousands of trackable fragments posing hazards to satellites and human spaceflight. The Fengyun 1C debris cloud has become a focal point in discussions about space sustainability and the need for international regulations to prevent the creation of new debris.

Loading next visibility...
Identifier
30941, 1999-025BAF
Orbit
SSO
Country
Flag of CNCN / PRC
Related business
Manufacturer
Unknown
Mission
Spacecraft
Bus & Motor
Unknown
Mass
Unknown
Launch date (UTC)
1999-05-10 (27 years ago)
Launch vehicle
Unknown
Launch site
Taiyaun Space Center, China (TSC)
Object type
Payload
Rocket body
Debris
Shape & HBR
Unknown shape, 0.1 m
Radar Cross Section
Small (<0.1 m²)

Expand to show TLE details & history
Last TLE update: 3 days ago

TLE from 3 days ago
0 FENGYUN 1C DEB
1 30941U 99025BAF 26235.56488444  .00002750  00000-0  10124-2 0  9997
2 30941  98.5331  93.5584 0030962 288.5783  71.2039 14.33133436  2558
Epoch: 2026-08-23T13:33Z
TLE epoch observation values (Epoch: 2026-08-23T13:33:26.015Z)
Latitude
-0.00003°
Longitude
-81.65911°
Altitude
777.132 km
Speed
7.469 km/s
True Right ascension
06h 14m 14s
True Declination
0° 00' 00"
Sunlit
Object was in daylight at epoch
Visualization orbit readout
Latitude
Unknown
Longitude
Unknown
Altitude
Unknown
Speed
Unknown
Apparent Right ascension
Unknown
Apparent Declination
Unknown
Sunlit
N/A
Visualization observer readout
Local Sidereal Time
01:44:48
Azimuth
Unknown
Elevation
Unknown
Doppler factor
Unknown
Orbital elements
Apogee altitude
800.567 km
Perigee altitude
756.251 km
Semi-major axis
7,156.546 km
Eccentricity
0.0031
Inclination
98.5331°
RAAN
93.5584°
Arg. of periapsis
288.5783°
True anomaly
71.54019°
Mean anomaly
71.2039°
Eccentric anomaly
71.37201°
Mean motion
3.58499 °/min
Orbital period
100.42 mins
BSTAR
0.0010124
Loading maneuver chart data...
Computing Atmospheric mass density...
Loading historical data...
Loading historical data...
Loading historical data...
Loading historical data...
Loading historical data...
Loading historical data...
Loading historical data...

Documentation

Showing up to 5 results
|